Regional Weather Roundup
Issued by NWS

Home | Current Version | Previous Version | Graphics & Text | Print | Product List | Glossary On
Versions: 1 2 3 4 5 6 7 8 9 10 11 12 13 14 15 16 17 18 19 20 21 22 23 24 25 26 27 28 29 30 31 32 33 34 35 36 37 38 39 40 41 42 43 44 45 46 47 48 49 50
208
ASUS44 KLIX 241705
RWRLA
LOUISIANA WEATHER ROUNDUP
NATIONAL WEATHER SERVICE NEW ORLEANS LA
1200 PM CDT FRI OCT 24 2014

NOTE: "FAIR" INDICATES FEW OR NO CLOUDS BELOW 12,000 FEET WITH NO
      SIGNIFICANT WEATHER AND/OR OBSTRUCTIONS TO VISIBILITY.
      SKY/WX - SKY CONDITION AND SIGNIFICANT WEATHER.
      TMP - AIR TEMPERATURE.    DP   - DEWPOINT TEMPERATURE.
      RH  - RELATIVE HUMIDITY.  PRES - PRESSURE.
      HX  - HEAT INDEX.         WCI  - WIND CHILL INDEX.

*  THESE STATIONS ARE NOT NWS OR FAA STATIONS AND ARE NOT UNDER
   NWS QUALITY CONTROL.

LAZ040-048-061>063-065-066-069-241800-
SOUTHEAST LOUISIANA

CITY           SKY/WX    TMP DP  RH WIND       PRES   REMARKS
N.O. AUDUBON     N/A     76  51  41 MISG        N/A
N.O. INTL ARPT MOSUNNY   71  50  47 N9        30.11F
N.O. LAKEFRONT SUNNY     70  53  54 N6        30.11F
N.O. DOWNTOWN* FAIR      72  43  35 NW8       30.12S
SLIDELL        SUNNY     72  46  39 N5        30.09F
BATON ROUGE    SUNNY     71  47  42 VRB6      30.13F
BOOTHVILLE     SUNNY     73  53  49 VRB3      30.09F
BELLE CHASSE   MOSUNNY   74  47  38 N7        30.10F
BOGALUSA*        N/A     73  43  34 N7        30.12F
NEW ROADS*     FAIR      68  50  52 NW5       30.14F
GONZALES*      FAIR      70  51  50 N6        30.11F
HAMMOND*       SUNNY     73  43  33 N6        30.13S
HOUMA*         SUNNY     72  50  46 N6        30.10F
PORT FOURCHON* SUNNY     72  52  49 NE7       30.13F

$$

LAZ041-044-053-054-241800-
SOUTHWEST LOUISIANA

CITY           SKY/WX    TMP DP  RH WIND       PRES   REMARKS
LAKE CHARLES   SUNNY     70  50  49 NE9       30.15F
LAFAYETTE      SUNNY     70  50  49 NE9       30.14F
PATTERSON      SUNNY     72  52  49 NE8       30.14F
SALT POINT       N/A     72  50  45 VRB5      30.11F
NEW IBERIA     SUNNY     72  50  45 NE12      30.14F
CHENAULT AIRPK SUNNY     70  48  46 N6        30.15F

$$

LAZ027-028-241800-
CENTRAL LOUISIANA

CITY           SKY/WX    TMP DP  RH WIND       PRES   REMARKS
FORT POLK      SUNNY     68  48  48 N9        30.16F
ALEXANDRIA INT SUNNY     70  47  43 N5        30.15F
ALEXANDRIA     SUNNY     68  48  48 VRB5      30.16F

$$

LAZ001-002-241800-
NORTHWEST LOUISIANA

CITY           SKY/WX    TMP DP  RH WIND       PRES   REMARKS
SHREVEPORT     MOSUNNY   71  52  50 CALM      30.18F
BARKSDALE AFB  SUNNY     69  49  48 VRB3      30.18F
DTN SHREVEPORT SUNNY     68  50  52 N3        30.18F

$$

LAZ014-016-241800-
NORTHEAST LOUISIANA

CITY           SKY/WX    TMP DP  RH WIND       PRES   REMARKS
MONROE         SUNNY     65  49  56 CALM      30.18F
TALLULAH       SUNNY     68  47  46 NE8       30.17F

$$




USA.gov is the U.S. government's official web portal to all federal, state and local government web resources and services.